#timestamp,LO_Frequency,Hit,StdDev 
1700805615.3,286047000.8,N
1700805635.2,286046998.3,N
1700805655.0,286047000.3,N
1700805655.9,286047000.3,N
1700805675.7,286047002.8,N
1700805695.6,286047002.4,N
1700805715.4,286047000.5,N
1700805735.3,286047000.0,N
1700805755.1,286047000.2,N
1700805775.8,286046998.1,N
1700805795.7,286047000.8,N
1700805815.5,286047000.3,N
1700805835.4,286046998.1,N
1700805855.2,286046999.8,N
1700805875.0,286047000.9,N
1700805875.9,286047000.9,N
1700805895.8,286046998.6,N
1700805915.6,286047001.2,N
1700805935.4,286047001.0,N
1700805955.3,286047000.8,N
1700805975.1,286047001.1,N
1700805995.9,286047001.1,N
1700806015.7,286046999.8,N
1700806035.5,286047000.0,N
1700806055.4,286047000.2,N
1700806075.2,286047000.5,N
1700806095.0,286046998.5,N
1700806095.9,286046998.5,N
1700806115.8,286046999.4,N
1700806135.6,286047001.0,N
1700806155.5,286047001.1,N
1700806175.3,286046998.2,N
1700806195.1,286046999.6,N
1700806215.9,286047001.0,N
1700806235.7,286047000.6,N
1700806255.5,286047001.1,N
1700806275.4,286046998.7,N
1700806295.2,286046998.7,N
1700806315.1,286046998.1,N
1700806316.0,286046998.1,N
1700806335.8,286046998.9,N
1700806355.6,286046998.3,N
1700806375.5,286046998.3,N
1700806395.3,286046998.6,N
1700806415.1,286047000.7,N
1700806435.9,286046998.2,N
1700806455.7,286047000.3,N
1700806475.6,286047001.5,N
1700806495.4,286047002.5,N
1700806515.2,286047004.4,Y
1700806535.1,286047004.0,P
1700806536.0,286047004.0,N
1700806555.8,286047001.6,N
1700806575.7,286047003.1,N
1700806595.5,286047003.9,N
1700806615.3,286047004.3,N
1700806635.2,286047004.0,N
1700806655.9,286047004.4,N
1700806675.7,286047001.7,N
1700806695.6,286046999.7,N
1700806715.4,286047002.0,N
1700806735.3,286047002.5,N
1700806755.1,286047004.3,N
1700806756.0,286047004.3,N
1700806775.8,286047004.2,N
1700806795.7,286047001.4,N
1700806815.5,286047003.8,N
1700806835.3,286047005.9,Y
1700806855.2,286047002.3,P
1700806875.0,286047002.5,P
1700806875.9,286047002.5,P
1700806895.8,286047001.7,Y
1700806915.6,286047000.8,P
1700806935.4,286047000.2,N
1700806955.3,286047000.3,N
1700806975.1,286046999.9,N
1700806995.8,286047000.6,N
1700807015.7,286046999.7,N
1700807035.5,286047000.2,N
1700807055.4,286047001.9,N
1700807075.2,286047004.3,Y
1700807095.0,286047004.4,P
1700807095.9,286047004.4,N
1700807115.8,286047004.1,N
1700807135.6,286047001.7,N
1700807155.4,286047001.4,N
1700807175.3,286047004.4,N
1700807195.1,286047001.3,N
1700807215.9,286047001.7,N
1700807235.7,286047001.8,N
1700807255.5,286047001.7,N
1700807275.4,286047004.0,N
1700807295.2,286047002.0,N
1700807315.1,286047001.3,N
1700807316.0,286047001.3,N
1700807335.8,286047002.1,N
1700807355.6,286047002.2,N
1700807375.5,286047002.1,N
1700807395.3,286047002.3,N
1700807415.1,286047000.1,N
1700807435.9,286047002.8,N
1700807455.7,286047002.0,N
1700807475.6,286047001.7,N
1700807495.4,286047000.1,N
1700807515.2,286047001.8,N
1700807535.1,286047001.7,N
1700807536.0,286047001.7,N
1700807555.8,286047004.0,Y
1700807575.6,286046998.5,P
1700807595.5,286046998.2,N
1700807615.3,286047000.5,N
1700807635.2,286046998.1,N
1700807655.9,286047000.5,N
1700807675.7,286047002.3,N
1700807695.6,286047002.2,N
1700807715.4,286047002.5,N
1700807735.2,286047004.3,N
1700807755.1,286046999.9,N
1700807756.0,286046999.9,N
1700807775.8,286047000.5,N
1700807795.7,286047001.0,N
1700807815.5,286047000.9,N
1700807835.3,286047000.2,N
1700807855.2,286047002.0,N
1700807875.0,286047004.4,N
1700807875.9,286047004.4,N
1700807895.8,286047003.8,N
1700807915.6,286047003.6,N
1700807935.4,286047004.2,N
1700807955.3,286047002.3,N
1700807975.1,286046999.7,N
1700807995.9,286047000.1,N
1700808015.7,286047001.0,N
1700808035.5,286047002.8,N
1700808055.4,286046999.7,N
1700808075.2,286047001.6,N
1700808095.0,286047001.7,N
1700808095.9,286047001.7,N
1700808115.8,286047004.1,N
1700808135.6,286047004.1,N
1700808155.5,286047001.5,N
1700808175.3,286047001.4,N
1700808195.1,286047001.6,N
1700808215.9,286047000.3,N
1700808235.7,286047002.3,N
1700808255.5,286047004.2,N
1700808275.4,286047003.1,N
1700808295.2,286047005.7,Y
1700808315.1,286047004.2,P
1700808316.0,286047004.2,P
1700808335.8,286047001.4,N
1700808355.6,286047002.2,N
1700808375.5,286047002.7,N
1700808395.3,286047002.5,N
1700808415.1,286047002.4,N
1700808435.9,286047000.2,N
1700808455.7,286046999.7,N
1700808475.6,286047000.0,N
1700808495.4,286047000.4,N
1700808515.2,286047000.6,N
1700808535.1,286047002.4,N
1700808536.0,286047002.4,N
1700808555.8,286047000.4,N
1700808575.7,286047000.7,N
1700808595.5,286047000.1,N
1700808615.3,286047002.4,N
1700808635.2,286047000.3,N
1700808655.0,286046999.7,N
1700808675.9,286047000.0,N
1700808695.7,286047000.8,N
1700808715.6,286047000.3,N
1700808735.4,286047000.9,N
1700808755.2,286046999.9,N
1700808775.1,286046999.9,N
1700808776.0,286046999.9,N
1700808795.8,286046999.8,N
1700808815.6,286047002.5,N
1700808835.5,286046999.9,N
1700808855.3,286047000.0,N
1700808875.2,286047000.3,N
1700808895.9,286047000.6,N
1700808915.7,286047002.7,N
1700808935.6,286047002.4,N
1700808955.4,286047002.0,N
1700808975.3,286046999.8,N
1700808995.1,286047000.4,N
1700808996.0,286047000.4,N
1700809015.8,286047001.0,N
1700809035.7,286046999.9,N
1700809055.5,286047002.4,N
1700809075.3,286047002.1,N
1700809095.2,286047004.1,Y
1700809115.0,286047000.4,P
1700809115.9,286047000.4,N
1700809135.8,286047000.9,P
1700809155.6,286047000.3,N
1700809175.4,286047002.0,Y
1700809195.3,286047002.8,P
